Location: Demmingen
(48.6757°N, 10.4375°E)
Time: 08:23:49
(UTC+00:00)

H-2A R/B - Pass Details

Date: 23 May 2024
Orbit: 553 x 572 km, 98.1° (Epoch: 15 June)

Event Time Altitude Azimuth Distance (km) Brightness Sun altitude
Rises 00:36:03 0° 21° (NNE) 2,757 8.6 -18.4°
Reaches altitude 10° 00:38:21 10° 30° (NNE) 1,853 7.2 -18.2°
Maximum altitude 00:42:03 35° 98° (E) 907 4.5 -18.0°
Enters shadow 00:43:50 23° 146° (SE) 1,195 4.7 -17.9°
